星链-32259 (STARLINK-32259)

导读 | 星芒AI

STARLINK-32259 是 SpaceX Starlink 卫星互联网项目中的一颗低轨卫星,属于第 6 批次发射的星链卫星群。该卫星运行在约 550 公里的近地轨道,旨在为全球用户提供高速、低延迟的互联网服务。作为星链计划的一部分,STARLINK-32259 与其他数千颗卫星协同工作,支持偏远地区和传统网络难以覆盖区域的通信需求。其部署有助于提升全球网络连接的可靠性和覆盖范围。

基本信息
目录编号:
60937
目录名称:
STARLINK-32259
国际标识:
2024-155P
轨道中心:
EARTH
卫星名称:
星链-32259
卫星全名:
星链-32259 (STARLINK-32259)
卫星状态:
在轨 (已飞行429 天)
发射日期:
2024-08-31 UTC
国别 :
美国 (US)
星等 :
--
轨道信息
数据来源 国际轨道数据 AOE轨道数据
星历时间 2025-11-02T18:11:26+0800
1天前
查看轨道信息
2025-11-03T08:00:00+0800
12小时前
查看轨道信息
半长轴 6853.397km 6853.326km
偏心率 0.0001157 0.0001628
轨道倾角 53.161° 53.163°
近地点辐角 78.377° 52.250°
升交点赤经 0.971° 358.301°
平近点角 281.736° 239.334°
近地点 474.469km 474.075km
远地点 476.055km 476.307km
周期 94.106分钟 94.105分钟
每日圈数 15.301851 15.30209
详细信息
固有亮度:
5
最大亮度:
2.5
卫星平台:
Starlink V1.0
覆盖范围:
全球
运营商:
太空探索技术公司
运营商所在国:
美国
制造商(研发单位):
太空探索技术公司
制造商所在国:
美国
使用方式:
暂无
卫星简介
Starlink 计划是 SpaceX 推出的全球卫星互联网项目,通过发射低轨道卫星,为全球尤其是偏远地区提供高速、低延迟的互联网服务。自 2019 年起,Starlink 已部署数千颗卫星,旨在缩小全球数字鸿沟,推动互联网普及。该项目还为军事、航空等行业提供通信支持,带来广泛经济效益。
2D轨道图
3D轨道图
轨道高度分析图
轨道倾角分析图
轨道综合分析图
查看轨道综合分析图